Weather History for Jackson, MN

Change the Weather History Date:

Monday, February 18, 2013

  Actual Average Record
Temperature  
Mean Temperature 20 °F -  
Max Temperature 35 °F 30 °F 42 °F (1997)
Min Temperature 5 °F 15 °F -9 °F (2006)
Degree Days  
Heating Degree Days 45    
Moisture  
Dew Point 18 °F    
Average Humidity 78    
Maximum Humidity 87    
Minimum Humidity 66    
Precipitation  
Precipitation 0.00 in - - ()
Sea Level Pressure  
Sea Level Pressure 29.69 in    
Wind  
Wind Speed 19 mph (WNW)    
Max Wind Speed 33 mph    
Max Gust Speed 43 mph    
Visibility 8 miles    
Events Snow    
Averages and records for this station are not official NWS values.
T = Trace of Precipitation, MM = Missing Value Source: NWS Daily Summary

Daily Weather History Graph

Daily Weather History Graph

Search for Another Location

Airport:

Trip Planner

Search our weather history database for the weather conditions in past years. The results will help you decide how hot, cold, wet, or windy it might be!

Date:

Astronomy

Feb. 18, 2013 Rise Set
Actual Time 7:13 AM CST 5:54 PM CST
Civil Twilight 6:44 AM CST 6:23 PM CST
Nautical Twilight 6:10 AM CST 6:57 PM CST
Astronomical Twilight 5:37 AM CST 7:30 PM CST
Moon 11:35 AM CST (2/18) 1:59 AM CST (2/18)
Length of Visible Light 11h 39m
Length of Day
10h 41m
First Quarter, 58% of the Moon is Illuminated
Feb 18
First Quarter
Feb 25
Full
Mar 4
Last Quarter
Mar 11
New
Mar 19
First Quarter

Hourly Weather History & Observations

Time (CST) Temp. Windchill Dew Point Humidity Pressure Visibility Wind Dir Wind Speed Gust Speed Precip Events Conditions
12:13 AM 35.6 °F 27.1 °F 30.2 °F 81% 29.54 in 10.0 mi South 12.7 mph - N/A   Clear
12:32 AM 33.8 °F 24.8 °F 30.2 °F 87% 29.54 in 10.0 mi South 12.7 mph - N/A   Clear
12:52 AM 33.8 °F 25.8 °F 30.2 °F 87% 29.54 in 10.0 mi South 10.4 mph - N/A   Clear
1:13 AM 33.8 °F 24.8 °F 30.2 °F 87% 29.54 in 10.0 mi SSW 12.7 mph - N/A   Clear
1:32 AM 33.8 °F 25.3 °F 30.2 °F 87% 29.54 in 10.0 mi SSW 11.5 mph - N/A   Clear
1:52 AM 33.8 °F 25.3 °F 30.2 °F 87% 29.54 in 10.0 mi SW 11.5 mph - N/A   Clear
2:13 AM 35.6 °F 28.0 °F 30.2 °F 81% 29.54 in 10.0 mi WSW 10.4 mph - N/A   Clear
2:32 AM 35.6 °F 27.5 °F 30.2 °F 81% 29.54 in 10.0 mi WSW 11.5 mph - N/A   Clear
2:52 AM 35.6 °F 26.6 °F 32.0 °F 87% 29.53 in 10.0 mi West 13.8 mph 18.4 mph N/A   Clear
3:13 AM 35.6 °F 26.6 °F 32.0 °F 87% 29.53 in 10.0 mi West 13.8 mph - N/A   Clear
3:32 AM 35.6 °F 26.6 °F 30.2 °F 81% 29.52 in 10.0 mi WNW 13.8 mph 20.7 mph N/A   Clear
3:52 AM 35.6 °F 25.5 °F 30.2 °F 81% 29.52 in 10.0 mi WNW 17.3 mph - N/A   Clear
4:13 AM 35.6 °F 27.1 °F 30.2 °F 81% 29.52 in 10.0 mi WNW 12.7 mph 18.4 mph N/A   Clear
4:32 AM 35.6 °F 25.5 °F 30.2 °F 81% 29.53 in 10.0 mi WNW 17.3 mph 21.9 mph N/A   Clear
4:53 AM 35.6 °F 26.6 °F 30.2 °F 81% 29.54 in 10.0 mi WNW 13.8 mph 20.7 mph N/A   Clear
5:12 AM 35.6 °F 26.2 °F 30.2 °F 81% 29.54 in 10.0 mi WNW 15.0 mph 23.0 mph N/A   Clear
5:32 AM 35.6 °F 26.2 °F 30.2 °F 81% 29.54 in 10.0 mi WNW 15.0 mph 21.9 mph N/A   Clear
5:53 AM 35.6 °F 26.2 °F 30.2 °F 81% 29.54 in 10.0 mi WNW 15.0 mph 23.0 mph N/A   Clear
6:12 AM 33.8 °F 24.8 °F 30.2 °F 87% 29.54 in 10.0 mi WNW 12.7 mph 19.6 mph N/A   Clear
6:32 AM 33.8 °F 23.9 °F 30.2 °F 87% 29.55 in 10.0 mi WNW 15.0 mph - N/A   Clear
6:53 AM 33.8 °F 23.9 °F 30.2 °F 87% 29.55 in 10.0 mi NW 15.0 mph - N/A   Clear
7:12 AM 33.8 °F 23.2 °F 30.2 °F 87% 29.56 in 10.0 mi WNW 17.3 mph 23.0 mph N/A   Scattered Clouds
7:32 AM 33.8 °F 23.2 °F 30.2 °F 87% 29.57 in 7.0 mi WNW 17.3 mph - N/A   Mostly Cloudy
8:12 AM 35.6 °F 25.9 °F 30.2 °F 81% 29.58 in 10.0 mi NW 16.1 mph 21.9 mph N/A   Overcast
8:33 AM 35.6 °F 26.2 °F 30.2 °F 81% 29.58 in 10.0 mi WNW 15.0 mph 20.7 mph N/A   Overcast
8:52 AM 35.6 °F 24.0 °F 30.2 °F 81% 29.59 in 10.0 mi NW 23.0 mph 28.8 mph N/A   Overcast
9:13 AM 32.0 °F 18.1 °F 26.6 °F 80% 29.61 in 10.0 mi NW 27.6 mph 38.0 mph N/A   Overcast
9:33 AM 30.2 °F 14.9 °F 24.8 °F 80% 29.62 in 10.0 mi NW 31.1 mph 36.8 mph N/A   Overcast
9:52 AM 30.2 °F 15.4 °F 23.0 °F 75% 29.64 in 10.0 mi NW 28.8 mph 33.4 mph N/A   Overcast
10:13 AM 28.4 °F 13.5 °F 21.2 °F 74% 29.65 in 10.0 mi NW 26.5 mph 32.2 mph N/A   Overcast
10:33 AM 28.4 °F 14.4 °F 21.2 °F 74% 29.66 in 10.0 mi NW 23.0 mph 33.4 mph N/A   Overcast
10:52 AM 26.6 °F 12.0 °F 21.2 °F 80% 29.67 in 10.0 mi NW 23.0 mph 32.2 mph N/A   Overcast
11:13 AM 26.6 °F 11.7 °F 21.2 °F 80% 29.68 in 10.0 mi NW 24.2 mph 31.1 mph N/A   Overcast
11:33 AM 26.6 °F 11.7 °F 19.4 °F 74% 29.69 in 10.0 mi NW 24.2 mph 34.5 mph N/A   Overcast
11:52 AM 26.6 °F 11.1 °F 19.4 °F 74% 29.69 in 10.0 mi NW 26.5 mph 33.4 mph N/A   Overcast
12:13 PM 24.8 °F 7.9 °F 17.6 °F 74% 29.69 in 10.0 mi NW 29.9 mph 36.8 mph N/A   Overcast
12:32 PM 23.0 °F 4.9 °F 15.8 °F 74% 29.70 in 10.0 mi NW 32.2 mph 39.1 mph N/A   Overcast
12:53 PM 23.0 °F 4.6 °F 14.0 °F 68% 29.71 in 10.0 mi NW 33.4 mph 40.3 mph N/A Snow Light Snow
1:13 PM 21.2 °F 3.9 °F 14.0 °F 74% 29.72 in 10.0 mi NW 26.5 mph 40.3 mph N/A Snow Light Snow
1:32 PM 21.2 °F 3.5 °F 14.0 °F 74% 29.72 in 10.0 mi NW 27.6 mph 36.8 mph N/A   Overcast
1:53 PM 21.2 °F 2.4 °F 14.0 °F 74% 29.72 in 5.0 mi NW 32.2 mph 38.0 mph N/A Snow Light Snow
2:13 PM 21.2 °F 4.2 °F 14.0 °F 74% 29.73 in 5.0 mi NW 25.3 mph 38.0 mph N/A Snow Light Snow
2:32 PM 21.2 °F 4.2 °F 14.0 °F 74% 29.74 in 5.0 mi NW 25.3 mph 31.1 mph N/A Snow Light Snow
2:53 PM 21.2 °F 3.3 °F 12.2 °F 68% 29.75 in 10.0 mi WNW 28.8 mph 36.8 mph N/A Snow Light Snow
3:13 PM 21.2 °F 4.2 °F 12.2 °F 68% 29.75 in 10.0 mi NW 25.3 mph 33.4 mph N/A Snow Light Snow
3:32 PM 19.4 °F 1.8 °F 12.2 °F 74% 29.76 in 5.0 mi NW 25.3 mph 33.4 mph N/A Snow Light Snow
3:53 PM 19.4 °F 1.1 °F 12.2 °F 74% 29.76 in 7.0 mi NW 27.6 mph 34.5 mph N/A Snow Light Snow
4:13 PM 17.6 °F -1.6 °F 10.4 °F 73% 29.78 in 7.0 mi WNW 28.8 mph 34.5 mph N/A   Overcast
4:33 PM 17.6 °F -1.3 °F 8.6 °F 68% 29.78 in 5.0 mi WNW 27.6 mph 34.5 mph N/A Snow Light Snow
4:52 PM 17.6 °F -1.0 °F 10.4 °F 73% 29.79 in 2.5 mi NW 26.5 mph - N/A Snow Light Snow
5:12 PM 17.6 °F 0.1 °F 10.4 °F 73% 29.80 in 1.2 mi NW 23.0 mph 29.9 mph N/A Snow Light Snow
5:33 PM 14.0 °F -6.2 °F 8.6 °F 79% 29.80 in 4.0 mi NW 27.6 mph 35.7 mph N/A Snow Light Snow
5:52 PM 14.0 °F -5.1 °F 8.6 °F 79% 29.81 in 7.0 mi WNW 24.2 mph 32.2 mph N/A Snow Light Snow
6:13 PM 14.0 °F -6.5 °F 5.0 °F 67% 29.81 in 4.0 mi NW 28.8 mph 38.0 mph N/A Snow Light Snow
6:32 PM 12.2 °F -5.8 °F 6.8 °F 79% 29.82 in 7.0 mi NW 19.6 mph 32.2 mph N/A Snow Light Snow
6:53 PM 12.2 °F -8.6 °F 5.0 °F 73% 29.83 in 7.0 mi NW 27.6 mph 35.7 mph N/A Snow Light Snow
7:13 PM 12.2 °F -7.9 °F 6.8 °F 79% 29.83 in 4.0 mi NW 25.3 mph 36.8 mph N/A Snow Light Snow
7:32 PM 12.2 °F -8.6 °F 6.8 °F 79% 29.84 in 2.5 mi NW 27.6 mph 39.1 mph N/A Snow Light Snow
7:53 PM 12.2 °F -7.5 °F 5.0 °F 73% 29.84 in 2.5 mi NW 24.2 mph 35.7 mph N/A Snow Light Snow
8:13 PM 12.2 °F -6.7 °F 5.0 °F 73% 29.85 in 3.0 mi NW 21.9 mph 38.0 mph N/A Snow Light Snow
8:32 PM 10.4 °F -9.9 °F 5.0 °F 79% 29.85 in 3.0 mi NW 24.2 mph 36.8 mph N/A Snow Light Snow
8:53 PM 10.4 °F -10.3 °F 5.0 °F 79% 29.85 in 1.8 mi NW 25.3 mph 38.0 mph N/A Snow Light Snow
9:13 PM 10.4 °F -11.0 °F 5.0 °F 79% 29.86 in 2.0 mi NW 27.6 mph 34.5 mph N/A Snow Light Snow
9:32 PM 10.4 °F -12.7 °F 3.2 °F 73% 29.86 in 2.5 mi NW 33.4 mph 41.4 mph N/A Snow Light Snow
9:53 PM 6.8 °F -16.2 °F 1.4 °F 79% 29.87 in 3.0 mi NW 28.8 mph 38.0 mph N/A   Haze
10:12 PM 6.8 °F -15.1 °F 1.4 °F 79% 29.88 in 2.0 mi NW 25.3 mph 33.4 mph N/A Snow Light Snow
10:32 PM 6.8 °F -16.6 °F 1.4 °F 79% 29.88 in 1.8 mi NW 29.9 mph 38.0 mph N/A Snow Light Snow
10:53 PM 6.8 °F -15.9 °F -0.4 °F 72% 29.89 in 7.0 mi NW 27.6 mph 41.4 mph N/A   Overcast
11:12 PM 5.0 °F -18.7 °F -0.4 °F 78% 29.90 in 5.0 mi NW 28.8 mph 38.0 mph N/A   Haze
11:32 PM 5.0 °F -19.7 °F -4.0 °F 66% 29.91 in 10.0 mi NW 32.2 mph 42.6 mph N/A   Mostly Cloudy
11:53 PM 5.0 °F -19.7 °F -4.0 °F 66% 29.91 in 10.0 mi NW 32.2 mph 41.4 mph N/A   Overcast